Tracking 27419 objects as of 9-Jun-2023
HD Live streaming from Space Station
objects crossing your sky now

STARLINK-2623

Track STARLINK-2623 now!
10-day predictions
STARLINK-2623 is classified as:


NORAD ID: 48368
Int'l Code: 2021-038R
Perigee: 553.5 km
Apogee: 555.2 km
Inclination: 53.1 °
Period: 95.6 minutes
Semi major axis: 6925 km
RCS: Unknown
Launch date: May 4, 2021
Source: United States (US)
Launch site: AIR FORCE EASTERN TEST RANGE (AFETR)
Your satellite tracking list
Your tracking list is empty




NASA's NSSDC Master Catalog

Two Line Element Set (TLE):
1 48368U 21038R   23159.79400244  .00006099  00000-0  42798-3 0  9990
2 48368  53.0517 183.0476 0001180  77.9110 282.2011 15.06398125116291
Source of the keplerian elements: AFSPC